EHI
4 16 35 42 27 8 1 0 0 0 0 0 0 0 0 0 0 0 2 6 7 5 3 2 1 0 0 0 0 0 0 0 0 0 0 0 0 0 0 0 0 0 0 0 0 0 0 0 0
7 20 34 32 16 4 0 0 0 0 0 0 0 0 0 0 0 0 2 5 8 7 5 4 2 1 0 0 0 0 0 0 0 0 0 0 0 0 0 0 0 0 0 0 0 0 0 0 0
13 22 26 16 5 0 0 0 0 0 0 0 0 0 0 0 0 1 2 5 9 11 11 7 3 1 0 0 0 0 0 0 0 0 0 0 0 0 0 0 0 0 0 0 0 0 0 0 0
18 20 14 5 1 0 0 0 0 0 0 0 1 0 0 0 0 1 3 5 9 13 12 9 5 2 0 0 0 0 0 0 0 0 0 0 0 0 0 0 0 0 0 0 0 0 0 0 0
17 14 6 1 0 0 0 0 0 0 0 1 2 2 1 1 1 2 3 5 9 13 12 9 7 4 1 0 1 1 1 0 0 0 0 0 0 0 0 0 0 0 0 0 0 0 0 0 0
10 6 2 0 0 0 0 0 0 0 0 1 2 3 3 2 1 1 2 3 9 14 12 8 7 5 2 1 2 2 1 1 1 1 0 0 0 0 0 0 0 0 0 0 0 0 0 0 0
3 2 0 0 0 0 0 0 0 0 0 0 1 3 4 3 2 1 1 2 7 13 11 5 4 5 4 3 3 3 3 3 2 1 0 0 0 0 0 0 1 0 0 0 0 1 0 0 0
1 0 0 0 0 0 0 0 0 0 0 0 1 5 8 6 3 1 2 4 7 10 9 6 5 6 5 4 4 3 3 3 3 2 1 1 1 1 1 1 1 0 0 0 0 0 0 0 0
0 0 0 0 0 0 0 0 0 0 0 1 4 9 12 10 6 5 7 9 10 9 9 9 10 9 7 5 5 4 4 4 4 3 3 2 3 3 2 2 2 1 0 0 0 0 0 0 0
0 0 0 0 0 0 0 0 0 0 1 4 10 15 17 14 10 8 10 12 11 10 11 12 13 13 10 7 6 5 6 6 5 5 4 3 3 3 3 4 3 2 0 0 1 1 1 0 0
0 0 0 0 0 0 0 0 0 0 1 7 16 20 21 19 15 12 12 14 14 13 12 13 14 14 13 10 7 5 6 6 5 6 5 3 2 2 3 4 3 2 1 1 2 3 2 0 0
0 0 0 0 0 0 0 0 0 0 1 7 15 20 22 22 19 15 16 19 20 19 17 17 18 18 18 15 10 6 5 5 6 7 6 4 3 1 2 3 3 2 1 2 2 2 1 0 0
0 0 0 0 0 0 0 0 0 0 1 5 11 16 20 24 24 23 27 31 31 29 27 27 27 26 22 19 14 8 6 7 9 8 7 5 4 3 2 3 3 2 2 3 2 1 0 1 1
0 0 0 0 0 0 0 0 0 1 2 5 9 13 18 24 29 34 38 41 41 38 37 36 34 29 23 18 15 11 8 9 10 10 8 7 6 5 4 4 4 3 3 4 3 1 1 1 2
0 0 0 0 0 0 0 0 0 2 5 8 11 15 20 27 35 42 43 44 47 47 44 40 36 31 23 17 14 12 9 9 11 12 10 9 8 7 5 4 4 5 4 4 3 2 2 2 1
0 0 0 0 0 0 0 0 1 4 8 12 16 22 28 34 40 45 45 48 55 57 51 42 37 34 27 19 15 13 11 12 14 15 14 13 11 9 7 4 4 5 5 4 4 3 3 2 1
0 0 0 0 0 0 0 0 0 3 9 15 21 30 39 43 46 50 51 57 66 68 60 49 43 40 33 25 19 16 15 15 17 19 20 16 11 9 7 6 4 3 4 5 3 2 2 2 1
0 0 0 0 0 0 0 0 0 2 8 16 25 37 47 50 52 55 57 63 73 77 71 61 52 44 37 31 25 21 17 18 20 24 24 17 9 6 8 9 6 4 4 4 3 1 1 2 2
0 0 0 0 0 0 0 1 2 2 6 15 28 40 49 55 59 60 60 64 74 82 81 72 60 50 41 35 31 26 22 22 24 28 27 18 9 6 9 10 9 6 5 6 5 3 2 2 3
0 0 0 0 0 0 0 1 2 3 3 11 25 39 50 60 68 70 66 66 74 85 86 77 67 57 48 40 35 29 26 25 25 30 30 22 12 8 8 10 10 9 8 10 9 6 4 4 4
0 0 0 0 0 0 0 1 2 2 2 7 16 30 46 62 75 79 74 71 76 83 85 80 73 63 53 46 38 31 27 25 27 34 37 30 20 14 11 12 13 12 11 12 11 9 8 6 5
0 0 0 0 0 0 0 1 2 2 3 5 10 20 37 57 73 79 79 76 75 79 84 83 78 68 57 48 40 33 30 28 31 40 42 36 27 20 18 18 18 17 14 12 10 10 11 9 8
0 0 0 0 0 0 0 0 1 2 3 5 9 16 29 47 64 75 80 78 74 74 80 83 80 73 62 52 42 36 33 32 34 40 40 36 30 25 23 24 23 20 16 13 11 11 12 11 10
0 0 0 0 0 0 0 0 0 1 3 6 9 16 28 42 57 71 78 78 73 71 76 82 81 76 68 56 45 40 37 35 36 39 38 34 31 29 27 28 28 25 21 18 15 13 12 12 12
0 0 0 0 0 0 0 0 0 1 3 6 9 15 27 40 52 64 73 75 74 72 76 80 81 77 70 60 50 44 39 37 39 42 41 37 33 31 29 28 28 27 25 23 19 16 14 14 14
0 0 0 0 0 0 0 0 0 1 3 5 8 12 21 33 45 57 67 73 75 75 76 80 80 78 72 64 57 50 42 38 41 43 41 39 34 28 26 25 23 23 23 22 21 19 17 17 17
0 0 0 0 0 0 0 0 1 2 4 6 9 12 17 26 39 53 65 71 73 75 77 79 79 77 73 67 61 54 47 44 46 43 38 35 29 24 23 20 18 19 20 21 21 20 18 18 18
0 0 0 0 0 0 0 0 2 5 7 10 14 17 21 27 38 53 64 68 69 74 77 77 77 78 75 70 63 56 52 52 51 45 37 30 24 21 20 19 17 18 19 20 20 17 16 16 16
0 0 0 0 0 0 0 1 4 7 9 12 17 23 26 30 40 54 64 65 64 69 75 76 77 78 78 74 67 60 57 56 53 46 38 28 21 19 20 20 17 16 17 19 19 16 15 15 12
0 0 0 0 0 0 0 1 4 7 9 11 16 23 28 32 41 55 65 64 62 66 73 76 77 78 79 75 70 64 60 58 54 48 40 31 22 20 21 20 17 16 18 20 19 17 16 14 10
Wind_Speed
8 11 10 7 4 7 16 16 16 16 16 15 16 15 18 17 13 14 12 16 17 16 14 13 12 12 11 12 12 12 12 12 12 12 12 11 11 11 12 12 12 12 11 11 11 11 10 10 10
9 13 10 5 2 11 14 14 14 14 13 14 18 19 20 19 18 16 14 14 17 17 14 13 13 12 12 11 11 11 11 11 11 11 11 10 11 11 11 11 11 11 11 11 10 10 10 9 9
12 15 8 1 11 13 14 13 13 12 12 16 18 17 15 15 16 14 14 15 17 17 15 14 13 12 12 11 11 11 11 11 11 11 10 10 10 10 11 11 10 10 10 10 10 9 9 9 8
9 7 2 7 16 16 14 13 13 13 13 14 14 13 15 14 16 16 15 16 17 17 16 14 13 12 12 11 11 11 10 10 10 10 10 9 9 9 10 10 10 10 10 10 9 9 9 8 8
9 4 5 12 17 14 13 14 14 14 14 17 18 17 16 16 17 16 14 15 16 17 16 14 14 13 12 11 11 10 10 10 10 10 9 9 9 8 9 9 10 9 10 9 8 8 8 8 7
4 1 7 12 15 13 13 14 15 14 14 16 17 16 14 14 13 13 13 14 16 17 16 14 14 13 12 11 10 10 9 9 9 9 9 9 8 8 8 9 9 9 9 9 8 8 8 7 5
3 3 10 13 14 14 14 13 13 12 13 14 16 15 14 13 12 12 12 13 14 16 16 13 13 12 12 11 10 9 9 8 8 8 9 8 8 8 8 9 9 9 8 8 8 8 7 6 4
2 3 8 12 13 14 14 14 14 13 12 11 12 12 13 13 12 12 12 12 11 12 13 13 13 12 11 10 10 10 9 8 8 8 8 8 8 8 9 9 9 8 8 7 7 7 6 5 4
4 3 8 12 12 12 13 13 13 11 11 12 13 16 17 15 13 12 11 11 9 9 9 10 11 10 10 10 10 10 9 8 8 7 8 7 5 6 6 9 9 8 7 7 7 6 6 5 5
4 5 11 11 11 11 11 11 11 12 12 14 16 17 17 14 13 11 11 11 10 9 9 8 8 8 8 8 8 6 6 7 5 5 6 4 2 3 6 9 9 8 7 7 7 7 6 6 4
6 7 8 10 11 10 10 9 9 11 12 13 16 17 16 13 11 11 10 10 10 9 8 8 8 6 6 5 5 3 3 4 4 5 4 3 3 4 5 4 5 5 6 5 6 6 4 4 2
5 6 6 8 8 8 9 10 11 12 13 15 16 16 15 13 11 10 10 10 10 8 7 8 8 6 5 4 3 3 3 3 3 4 4 4 2 3 3 2 3 3 2 2 3 2 3 2 2
3 4 5 6 7 8 8 10 10 13 14 15 16 16 14 13 11 10 10 10 10 9 7 8 7 6 4 3 0 3 3 3 4 4 3 3 3 3 3 2 2 2 2 2 2 1 2 1 1
1 1 3 5 8 9 6 7 7 12 14 15 15 14 13 12 12 11 10 9 9 8 8 8 8 6 4 2 0 1 2 3 3 3 4 4 3 3 3 2 1 2 1 1 1 2 1 1 1
3 3 2 4 6 9 7 3 2 10 13 13 14 13 13 11 12 12 10 9 10 8 8 8 8 7 5 4 3 2 2 3 3 3 3 3 4 3 2 2 2 2 1 2 1 1 1 2 2
8 5 3 3 4 9 9 4 6 9 11 12 12 12 12 10 11 12 12 9 10 9 8 7 7 8 6 3 2 1 2 2 3 3 3 3 4 3 2 2 2 2 2 2 2 2 2 1 1
9 8 8 6 4 5 7 7 9 10 10 11 11 12 12 11 11 11 12 11 10 9 8 6 5 7 6 5 3 1 1 2 1 2 3 3 3 3 2 1 2 2 2 2 3 2 1 1 1
7 4 4 5 5 4 4 6 8 10 10 11 11 11 12 12 11 11 11 11 10 10 9 7 6 6 5 4 3 1 1 2 2 2 3 3 3 3 2 2 3 3 2 1 1 1 1 1 2
7 7 3 1 2 3 2 4 8 8 9 9 10 11 12 12 12 11 11 11 12 10 9 8 7 6 4 3 3 2 2 2 2 3 4 4 4 4 3 1 2 2 2 3 3 2 3 3 2
8 9 6 3 3 3 2 2 4 7 8 9 10 12 12 13 12 11 11 10 11 10 9 9 7 7 6 4 3 2 2 3 3 2 4 4 4 4 4 3 2 2 2 2 2 2 1 2 2
9 8 7 5 3 4 5 3 3 5 7 9 9 10 12 14 14 12 11 10 10 11 10 9 8 8 7 5 4 2 1 1 1 3 3 3 4 4 2 4 3 2 2 2 3 3 3 2 2
9 7 7 7 6 6 7 3 5 7 8 9 10 10 11 12 13 13 12 11 11 11 10 8 8 7 6 6 5 5 4 3 3 2 3 3 3 3 3 3 2 2 2 1 3 3 3 3 2
9 7 8 9 9 9 7 4 3 5 7 8 9 10 10 12 13 13 13 11 10 10 10 9 8 7 7 6 5 4 3 2 2 2 3 3 2 3 3 3 2 2 2 2 2 1 2 2 3
9 9 9 10 10 9 9 5 2 3 4 6 9 10 10 11 12 12 12 10 9 10 10 10 9 7 7 6 6 5 4 3 2 2 2 2 2 2 3 3 2 2 2 2 2 2 3 2 3
10 9 7 8 8 6 6 5 4 6 4 5 8 9 11 11 11 12 12 11 10 10 10 10 10 8 7 7 6 5 5 4 4 3 3 3 2 2 2 3 2 2 2 2 2 2 3 3 3
11 13 10 8 6 2 5 5 5 7 7 6 7 9 10 11 11 12 12 11 10 10 10 10 10 8 8 7 6 5 5 4 3 4 3 3 2 2 2 3 3 2 2 3 2 2 3 3 3
13 12 13 13 11 7 6 3 5 8 8 8 8 8 9 9 11 11 12 12 11 10 10 10 9 9 8 8 6 5 5 3 3 3 3 3 2 2 3 3 2 2 2 2 1 2 2 1 1
14 12 9 10 8 8 6 5 2 8 7 8 8 9 9 9 10 11 11 11 11 11 10 10 10 8 8 7 6 6 5 4 3 3 3 2 1 1 1 2 2 2 2 2 2 2 1 1 1
14 14 11 8 9 9 5 2 4 6 6 7 8 8 8 8 10 11 10 11 11 11 11 10 9 9 8 8 6 5 6 5 4 3 3 2 2 2 2 2 2 2 2 2 1 2 1 1 1
14 14 13 9 8 9 6 3 2 4 6 6 6 8 8 8 9 11 11 10 10 11 11 10 10 10 9 8 7 6 5 5 5 4 3 3 3 2 2 2 2 2 2 1 1 2 1 0 1
Wind_Direction
241 234 225 240 237 72 64 61 63 65 64 61 61 66 63 59 74 94 111 115 116 115 115 108 98 95 93 94 96 96 94 96 98 97 95 95 97 99 100 100 101 101 102 105 107 107 108 108 109
258 247 232 238 69 74 73 71 69 70 74 73 71 75 75 75 85 101 111 118 118 117 116 108 105 100 96 95 95 96 95 97 100 99 98 98 98 100 101 102 104 106 107 106 105 106 109 110 113
257 256 259 107 69 71 75 81 85 83 85 84 74 69 71 86 96 108 120 124 114 109 107 109 110 104 101 99 98 98 97 99 101 101 101 100 101 104 104 104 105 106 106 106 106 105 106 109 113
260 245 224 75 73 72 78 84 89 84 79 86 87 79 76 87 103 115 127 124 116 115 112 114 114 110 107 104 102 101 102 102 104 103 103 103 103 104 106 106 106 107 108 107 106 108 107 110 115
244 268 86 80 80 78 83 88 85 83 81 83 87 92 90 94 107 122 128 123 118 115 116 121 120 117 115 112 108 107 107 106 105 104 105 106 106 103 105 108 108 110 112 113 112 111 109 113 120
273 262 81 80 81 80 84 88 90 91 95 102 104 103 102 113 123 127 122 119 119 118 119 124 125 125 123 120 117 115 113 113 114 113 111 112 112 110 111 113 112 110 113 117 117 117 115 118 127
292 29 85 90 87 82 78 84 93 93 92 97 109 113 121 126 126 121 117 114 121 123 128 135 136 134 132 128 125 122 120 121 123 124 124 123 121 120 118 120 115 114 117 120 120 120 121 128 141
21 52 80 86 87 86 84 81 81 83 86 104 116 119 129 130 129 119 116 111 110 119 127 138 143 142 145 138 135 132 130 131 135 136 137 135 131 132 132 130 123 123 126 128 130 130 134 144 164
23 59 79 84 88 92 93 93 95 97 91 79 87 111 126 136 130 129 122 115 113 114 123 134 135 144 146 142 139 144 143 146 148 151 151 150 152 144 145 129 131 133 137 143 148 152 157 166 185
69 64 76 85 92 94 97 107 118 108 100 94 98 110 126 137 140 144 138 136 135 134 128 133 130 139 143 135 141 155 159 153 172 156 160 171 153 129 125 131 140 148 154 160 174 177 181 194 194
74 76 81 87 92 101 103 104 111 110 113 117 123 131 138 143 150 147 142 138 136 134 128 132 123 125 118 120 146 146 142 143 164 149 154 154 144 134 132 145 152 165 175 182 174 192 207 207 197
72 84 82 88 92 95 93 90 86 88 101 121 131 138 144 153 156 148 138 134 134 133 132 126 116 105 92 104 123 136 137 145 145 147 162 154 155 145 139 149 166 172 181 173 174 194 191 179 173
83 97 104 105 100 84 83 86 90 101 111 122 133 143 151 156 155 145 133 131 135 139 134 116 108 101 95 85 138 140 130 133 142 144 161 155 156 147 143 156 177 169 164 171 166 183 156 151 170
21 81 112 118 102 89 76 99 114 117 124 132 140 148 156 155 152 139 140 141 140 140 137 127 127 125 127 141 208 112 129 131 134 155 155 154 137 134 141 153 175 160 157 135 153 172 151 193 185
255 239 196 156 124 118 92 48 147 134 137 143 146 152 154 158 152 149 152 152 149 145 139 139 147 147 157 172 197 167 153 140 136 138 141 148 135 143 157 161 176 154 143 138 175 190 173 204 195
236 227 223 200 141 135 128 166 201 159 150 150 153 156 155 160 160 154 153 159 148 148 146 165 167 152 164 173 190 214 150 132 138 146 146 148 140 164 181 174 164 162 173 174 184 223 212 201 197
241 217 198 191 180 175 158 166 182 170 159 157 161 160 158 163 166 156 158 160 151 150 154 167 155 153 164 168 178 200 134 125 145 152 147 152 159 172 190 159 149 193 198 192 209 182 196 197 212
283 268 209 177 175 209 167 159 163 169 169 163 162 161 162 169 170 160 161 158 153 155 159 165 163 160 164 162 171 209 163 155 171 163 146 157 181 185 198 182 176 208 195 189 188 164 214 227 227
288 288 261 183 232 255 216 173 167 173 172 159 162 164 166 168 166 162 166 164 160 159 160 164 171 165 171 173 178 183 180 191 184 178 163 176 197 189 200 208 181 207 202 197 194 191 204 223 222
262 276 269 219 198 261 273 251 187 176 174 167 167 168 170 167 164 164 168 169 165 162 165 169 174 171 180 178 176 187 185 203 183 178 162 184 193 194 193 189 212 209 205 210 215 194 229 245 221
255 265 284 292 302 262 248 236 256 198 178 163 170 170 169 169 166 168 173 172 171 168 173 176 176 177 184 176 177 186 173 238 183 172 172 195 197 200 211 187 214 219 215 198 208 211 217 230 259
259 260 273 280 275 275 259 241 218 205 186 173 170 168 168 163 164 168 172 174 175 173 171 168 172 177 178 181 193 192 194 201 195 180 171 193 204 201 194 203 211 229 247 208 219 207 209 216 242
269 287 280 276 270 271 274 262 207 208 188 174 166 164 160 162 164 168 170 173 173 171 167 166 168 172 176 188 196 202 208 205 193 174 171 186 199 218 206 194 202 215 233 239 245 196 212 222 239
266 269 266 264 263 254 258 255 197 218 176 163 153 148 149 154 156 159 161 163 167 167 166 164 163 171 177 188 197 198 206 210 204 185 175 193 200 213 209 193 194 202 213 232 233 227 226 231 251
239 249 252 246 241 249 252 239 176 164 139 137 142 142 147 150 151 154 158 162 167 167 167 162 163 172 180 187 196 194 203 207 208 212 197 203 207 205 202 189 184 209 216 221 222 221 238 235 238
230 241 250 263 269 260 250 236 144 127 117 122 132 136 145 154 156 159 161 162 167 168 165 162 165 171 178 184 188 191 199 212 203 201 205 202 213 200 183 177 190 209 229 237 218 226 231 225 233
245 243 256 265 265 261 239 227 147 145 142 143 140 142 151 153 153 158 159 162 166 168 165 164 162 170 179 184 182 189 195 205 203 193 204 202 201 200 172 179 188 202 223 246 227 238 253 239 243
252 261 264 264 274 273 247 240 198 142 148 149 150 151 149 151 156 154 157 162 165 166 161 163 165 171 174 175 181 182 186 192 197 200 192 197 206 220 171 181 193 202 219 233 238 241 247 237 247
225 241 260 277 275 274 269 298 110 137 158 161 157 147 148 165 162 155 158 160 164 164 162 165 164 167 172 175 179 177 173 184 183 190 197 197 213 205 195 198 202 211 221 233 236 252 239 232 267
238 234 235 245 260 275 270 244 152 147 151 148 147 145 152 166 161 155 156 160 166 166 164 165 170 173 175 174 172 175 172 176 184 187 187 191 200 209 202 204 205 216 212 211 244 271 284 284 285